Time,TemperatureF,DewpointF,PressureIn,WindDirection,WindDirectionDegrees,WindSpeedMPH,WindSpeedGustMPH,Humidity,HourlyPrecipIn,Conditions,Clouds,dailyrainin,SoftwareType,DateUTC
2013-05-28 00:13:00,53.8,52.0,29.92,East,79,5.0,7.0,94,0.00,,,0.29,weatherlink.com 1.10,2013-05-28 05:13:00,
2013-05-28 00:28:00,53.8,52.0,29.91,East,79,4.0,7.0,93,0.00,,,0.29,weatherlink.com 1.10,2013-05-28 05:28:00,
2013-05-28 00:43:00,53.7,52.0,29.90,East,79,4.0,7.0,93,0.00,,,0.29,weatherlink.com 1.10,2013-05-28 05:43:00,
2013-05-28 00:58:00,53.8,52.0,29.90,East,79,0.0,5.0,93,0.00,,,0.29,weatherlink.com 1.10,2013-05-28 05:58:00,
2013-05-28 01:14:00,53.8,52.0,29.90,East,79,0.0,9.0,93,0.00,,,0.29,weatherlink.com 1.10,2013-05-28 06:14:00,
2013-05-28 01:29:00,53.8,52.0,29.88,East,79,0.0,5.0,93,0.00,,,0.29,weatherlink.com 1.10,2013-05-28 06:29:00,
2013-05-28 01:44:00,53.7,52.0,29.87,East,79,3.0,6.0,93,0.00,,,0.29,weatherlink.com 1.10,2013-05-28 06:44:00,
2013-05-28 01:59:00,53.7,52.0,29.87,East,79,4.0,4.0,93,0.00,,,0.29,weatherlink.com 1.10,2013-05-28 06:59:00,
2013-05-28 02:14:00,53.7,52.0,29.87,East,79,2.0,6.0,93,0.00,,,0.29,weatherlink.com 1.10,2013-05-28 07:14:00,
2013-05-28 02:29:00,53.6,52.0,29.86,East,79,0.0,7.0,94,0.00,,,0.29,weatherlink.com 1.10,2013-05-28 07:29:00,
2013-05-28 02:44:00,53.5,52.0,29.85,East,79,5.0,6.0,94,0.00,,,0.29,weatherlink.com 1.10,2013-05-28 07:44:00,
2013-05-28 02:59:00,53.5,52.0,29.86,East,79,0.0,4.0,94,0.00,,,0.29,weatherlink.com 1.10,2013-05-28 07:59:00,
2013-05-28 03:14:00,53.6,52.0,29.86,East,79,2.0,4.0,94,0.00,,,0.29,weatherlink.com 1.10,2013-05-28 08:14:00,
2013-05-28 03:29:00,53.6,52.0,29.84,East,79,4.0,6.0,94,0.00,,,0.29,weatherlink.com 1.10,2013-05-28 08:29:00,
2013-05-28 03:44:00,53.6,52.0,29.84,East,79,0.0,2.0,94,0.00,,,0.29,weatherlink.com 1.10,2013-05-28 08:44:00,
2013-05-28 03:59:00,53.6,52.0,29.84,East,79,6.0,8.0,94,0.00,,,0.29,weatherlink.com 1.10,2013-05-28 08:59:00,
2013-05-28 04:14:00,53.7,52.0,29.84,East,79,0.0,7.0,95,0.00,,,0.29,weatherlink.com 1.10,2013-05-28 09:14:00,
2013-05-28 04:29:00,53.6,52.0,29.84,East,79,0.0,0.0,95,0.00,,,0.29,weatherlink.com 1.10,2013-05-28 09:29:00,
2013-05-28 04:44:00,53.5,52.0,29.84,East,79,0.0,0.0,95,0.00,,,0.29,weatherlink.com 1.10,2013-05-28 09:44:00,
2013-05-28 04:59:00,53.4,52.0,29.84,East,79,0.0,0.0,95,0.00,,,0.29,weatherlink.com 1.10,2013-05-28 09:59:00,
2013-05-28 05:14:00,53.3,52.0,29.84,East,79,0.0,0.0,95,0.00,,,0.29,weatherlink.com 1.10,2013-05-28 10:14:00,
2013-05-28 05:29:00,53.4,52.0,29.84,East,79,0.0,1.0,95,0.05,,,0.34,weatherlink.com 1.10,2013-05-28 10:29:00,
2013-05-28 05:44:00,53.3,52.0,29.82,East,79,0.0,7.0,96,0.05,,,0.34,weatherlink.com 1.10,2013-05-28 10:44:00,
2013-05-28 05:59:00,53.2,52.0,29.82,East,79,5.0,7.0,96,0.05,,,0.00,weatherlink.com 1.10,2013-05-28 10:59:00,
2013-05-28 06:14:00,53.1,52.0,29.83,East,79,0.0,6.0,96,0.05,,,0.00,weatherlink.com 1.10,2013-05-28 11:14:00,
2013-05-28 06:29:00,53.2,52.0,29.83,East,79,0.0,0.0,96,0.00,,,0.00,weatherlink.com 1.10,2013-05-28 11:29:00,
2013-05-28 06:44:00,53.3,52.0,29.81,East,79,6.0,9.0,96,0.00,,,0.00,weatherlink.com 1.10,2013-05-28 11:44:00,
2013-05-28 06:59:00,53.4,52.0,29.82,NE,50,0.0,5.0,96,0.00,,,0.00,weatherlink.com 1.10,2013-05-28 11:59:00,
2013-05-28 07:14:00,53.4,52.0,29.81,NE,50,0.0,0.0,96,0.00,,,0.00,weatherlink.com 1.10,2013-05-28 12:14:00,
2013-05-28 07:29:00,53.5,52.0,29.80,NE,50,5.0,6.0,96,0.03,,,0.03,weatherlink.com 1.10,2013-05-28 12:29:00,
2013-05-28 07:44:00,53.9,53.0,29.78,NE,50,5.0,10.0,96,0.04,,,0.04,weatherlink.com 1.10,2013-05-28 12:44:00,
2013-05-28 07:59:00,53.8,53.0,29.79,NE,50,0.0,7.0,96,0.06,,,0.06,weatherlink.com 1.10,2013-05-28 12:59:00,
2013-05-28 08:14:00,53.9,53.0,29.80,NE,50,4.0,6.0,96,0.07,,,0.07,weatherlink.com 1.10,2013-05-28 13:14:00,
2013-05-28 08:29:00,54.2,53.0,29.80,NE,50,2.0,6.0,96,0.04,,,0.07,weatherlink.com 1.10,2013-05-28 13:29:00,
2013-05-28 08:44:00,54.4,53.0,29.81,East,80,4.0,7.0,96,0.03,,,0.07,weatherlink.com 1.10,2013-05-28 13:44:00,
2013-05-28 08:59:00,54.7,54.0,29.80,East,89,0.0,6.0,96,0.01,,,0.07,weatherlink.com 1.10,2013-05-28 13:59:00,
2013-05-28 09:14:00,54.9,54.0,29.81,East,89,0.0,0.0,95,0.00,,,0.07,weatherlink.com 1.10,2013-05-28 14:14:00,
2013-05-28 09:29:00,55.2,54.0,29.81,East,89,0.0,0.0,95,0.00,,,0.07,weatherlink.com 1.10,2013-05-28 14:29:00,
2013-05-28 09:44:00,55.2,54.0,29.81,East,89,0.0,5.0,95,0.00,,,0.07,weatherlink.com 1.10,2013-05-28 14:44:00,
2013-05-28 09:59:00,55.8,54.0,29.81,East,89,0.0,1.0,95,0.00,,,0.07,weatherlink.com 1.10,2013-05-28 14:59:00,
2013-05-28 10:14:00,55.6,54.0,29.81,East,89,2.0,4.0,95,0.00,,,0.07,weatherlink.com 1.10,2013-05-28 15:14:00,
2013-05-28 10:29:00,55.6,54.0,29.80,East,89,4.0,6.0,95,0.00,,,0.07,weatherlink.com 1.10,2013-05-28 15:29:00,
2013-05-28 10:44:00,56.2,55.0,29.80,East,89,6.0,7.0,95,0.00,,,0.07,weatherlink.com 1.10,2013-05-28 15:44:00,
2013-05-28 10:59:00,56.2,55.0,29.80,East,89,5.0,8.0,94,0.00,,,0.07,weatherlink.com 1.10,2013-05-28 15:59:00,
2013-05-28 11:14:00,56.4,55.0,29.80,East,89,5.0,6.0,93,0.00,,,0.07,weatherlink.com 1.10,2013-05-28 16:14:00,
2013-05-28 11:29:00,56.6,55.0,29.80,East,89,6.0,8.0,93,0.00,,,0.07,weatherlink.com 1.10,2013-05-28 16:29:00,
2013-05-28 11:44:00,57.0,55.0,29.79,East,89,6.0,8.0,93,0.00,,,0.07,weatherlink.com 1.10,2013-05-28 16:44:00,
2013-05-28 11:59:00,57.5,56.0,29.80,East,89,7.0,8.0,93,0.00,,,0.07,weatherlink.com 1.10,2013-05-28 16:59:00,
2013-05-28 12:15:00,57.6,55.0,29.79,East,89,4.0,9.0,92,0.00,,,0.07,weatherlink.com 1.10,2013-05-28 17:15:00,
2013-05-28 12:30:00,58.1,56.0,29.79,East,89,6.0,8.0,92,0.00,,,0.07,weatherlink.com 1.10,2013-05-28 17:30:00,
2013-05-28 12:45:00,58.7,56.0,29.80,East,89,3.0,5.0,91,0.00,,,0.07,weatherlink.com 1.10,2013-05-28 17:45:00,
2013-05-28 13:00:00,58.9,56.0,29.79,East,89,0.0,7.0,91,0.00,,,0.07,weatherlink.com 1.10,2013-05-28 18:00:00,
2013-05-28 13:15:00,59.4,57.0,29.77,East,89,6.0,8.0,91,0.00,,,0.07,weatherlink.com 1.10,2013-05-28 18:15:00,
2013-05-28 13:30:00,61.6,59.0,29.77,East,89,5.0,7.0,91,0.00,,,0.07,weatherlink.com 1.10,2013-05-28 18:30:00,
2013-05-28 13:45:00,63.2,59.0,29.77,East,89,10.0,11.0,87,0.00,,,0.07,weatherlink.com 1.10,2013-05-28 18:45:00,
2013-05-28 14:00:00,64.1,60.0,29.77,East,89,4.0,7.0,87,0.00,,,0.07,weatherlink.com 1.10,2013-05-28 19:00:00,
2013-05-28 14:15:00,64.5,60.0,29.78,ESE,116,5.0,8.0,84,0.00,,,0.07,weatherlink.com 1.10,2013-05-28 19:15:00,
2013-05-28 14:30:00,62.7,59.0,29.79,ESE,116,3.0,8.0,87,0.00,,,0.07,weatherlink.com 1.10,2013-05-28 19:30:00,
2013-05-28 14:45:00,62.6,59.0,29.79,SSE,161,6.0,9.0,87,0.00,,,0.07,weatherlink.com 1.10,2013-05-28 19:45:00,
2013-05-28 15:00:00,62.7,59.0,29.79,South,175,4.0,7.0,87,0.00,,,0.07,weatherlink.com 1.10,2013-05-28 20:00:00,
2013-05-28 15:15:00,63.2,59.0,29.80,South,175,2.0,5.0,87,0.00,,,0.07,weatherlink.com 1.10,2013-05-28 20:15:00,
2013-05-28 15:30:00,63.4,59.0,29.80,South,175,5.0,7.0,86,0.00,,,0.07,weatherlink.com 1.10,2013-05-28 20:30:00,
2013-05-28 15:45:00,63.1,59.0,29.80,SSW,192,0.0,8.0,87,0.00,,,0.07,weatherlink.com 1.10,2013-05-28 20:45:00,
2013-05-28 16:00:00,63.1,59.0,29.80,SSW,192,0.0,9.0,87,0.00,,,0.07,weatherlink.com 1.10,2013-05-28 21:00:00,
2013-05-28 16:15:00,62.7,59.0,29.80,SSW,192,0.0,5.0,88,0.00,,,0.07,weatherlink.com 1.10,2013-05-28 21:15:00,
2013-05-28 16:30:00,63.1,60.0,29.80,SSW,192,4.0,6.0,88,0.00,,,0.07,weatherlink.com 1.10,2013-05-28 21:30:00,
2013-05-28 16:45:00,63.4,60.0,29.81,SSW,192,0.0,0.0,87,0.00,,,0.07,weatherlink.com 1.10,2013-05-28 21:45:00,
2013-05-28 17:00:00,63.9,60.0,29.81,SSW,192,0.0,0.0,87,0.00,,,0.07,weatherlink.com 1.10,2013-05-28 22:00:00,
2013-05-28 17:15:00,63.6,60.0,29.81,SSW,192,0.0,0.0,88,0.00,,,0.07,weatherlink.com 1.10,2013-05-28 22:15:00,
2013-05-28 17:30:00,63.9,60.0,29.80,SSW,192,0.0,5.0,88,0.00,,,0.07,weatherlink.com 1.10,2013-05-28 22:30:00,
2013-05-28 17:45:00,64.0,60.0,29.80,SSW,192,0.0,5.0,88,0.00,,,0.07,weatherlink.com 1.10,2013-05-28 22:45:00,
2013-05-28 18:00:00,64.5,61.0,29.81,SSW,192,0.0,2.0,87,0.00,,,0.07,weatherlink.com 1.10,2013-05-28 23:00:00,
2013-05-28 18:15:00,64.5,61.0,29.80,SSW,192,0.0,6.0,87,0.00,,,0.07,weatherlink.com 1.10,2013-05-28 23:15:00,
2013-05-28 18:30:00,64.8,61.0,29.80,SSW,192,0.0,3.0,87,0.00,,,0.07,weatherlink.com 1.10,2013-05-28 23:30:00,
2013-05-28 18:45:00,64.9,61.0,29.78,SSW,192,0.0,4.0,87,0.00,,,0.07,weatherlink.com 1.10,2013-05-28 23:45:00,
2013-05-28 19:00:00,65.5,61.0,29.77,SSW,192,0.0,2.0,86,0.00,,,0.07,weatherlink.com 1.10,2013-05-29 00:00:00,
2013-05-28 19:15:00,64.9,60.0,29.77,SSW,193,6.0,8.0,85,0.00,,,0.07,weatherlink.com 1.10,2013-05-29 00:15:00,
2013-05-28 19:30:00,63.4,60.0,29.78,WNW,288,6.0,12.0,88,0.00,,,0.07,weatherlink.com 1.10,2013-05-29 00:30:00,
2013-05-28 19:45:00,63.3,60.0,29.79,WNW,288,0.0,7.0,89,0.00,,,0.07,weatherlink.com 1.10,2013-05-29 00:45:00,
2013-05-28 20:00:00,62.7,60.0,29.77,WNW,296,7.0,11.0,89,0.00,,,0.07,weatherlink.com 1.10,2013-05-29 01:00:00,
2013-05-28 20:15:00,62.3,59.0,29.75,NW,318,7.0,13.0,90,0.00,,,0.07,weatherlink.com 1.10,2013-05-29 01:15:00,
2013-05-28 20:30:00,62.3,60.0,29.77,NW,319,0.0,9.0,91,0.00,,,0.07,weatherlink.com 1.10,2013-05-29 01:30:00,
2013-05-28 20:45:00,62.6,60.0,29.79,NW,319,4.0,6.0,91,0.00,,,0.07,weatherlink.com 1.10,2013-05-29 01:45:00,
2013-05-28 21:00:00,62.8,60.0,29.81,NW,319,4.0,5.0,91,0.00,,,0.07,weatherlink.com 1.10,2013-05-29 02:00:00,
2013-05-28 21:15:00,63.0,60.0,29.81,NW,319,0.0,0.0,91,0.00,,,0.07,weatherlink.com 1.10,2013-05-29 02:15:00,
2013-05-28 21:30:00,62.6,60.0,29.81,NW,319,0.0,5.0,91,0.00,,,0.07,weatherlink.com 1.10,2013-05-29 02:30:00,
2013-05-28 21:45:00,62.3,60.0,29.81,NW,319,0.0,0.0,91,0.00,,,0.07,weatherlink.com 1.10,2013-05-29 02:45:00,
2013-05-28 22:00:00,62.2,60.0,29.82,NW,319,0.0,0.0,92,0.00,,,0.07,weatherlink.com 1.10,2013-05-29 03:00:00,
2013-05-28 22:15:00,62.0,60.0,29.83,NW,319,0.0,0.0,92,0.00,,,0.07,weatherlink.com 1.10,2013-05-29 03:15:00,
2013-05-28 22:30:00,62.2,60.0,29.83,NW,319,0.0,0.0,92,0.00,,,0.07,weatherlink.com 1.10,2013-05-29 03:30:00,
2013-05-28 22:45:00,62.3,60.0,29.83,NW,319,0.0,0.0,92,0.00,,,0.07,weatherlink.com 1.10,2013-05-29 03:45:00,
2013-05-28 23:00:00,62.3,60.0,29.82,NW,319,0.0,0.0,92,0.00,,,0.07,weatherlink.com 1.10,2013-05-29 04:00:00,
2013-05-28 23:15:00,62.4,60.0,29.84,NW,319,0.0,0.0,92,0.00,,,0.07,weatherlink.com 1.10,2013-05-29 04:15:00,
2013-05-28 23:30:00,62.4,60.0,29.85,NW,319,0.0,2.0,92,0.00,,,0.07,weatherlink.com 1.10,2013-05-29 04:30:00,
2013-05-28 23:45:00,62.6,60.0,29.86,NW,319,0.0,0.0,92,0.00,,,0.07,weatherlink.com 1.10,2013-05-29 04:45:00,